This is the latest recevied weather packets stored in our database for station/object KW6V-15. If no packets are shown the sender has not sent any weather packets the latest 10 day(s).
| Time | Temp. | Humidity | Pressure | Rain* | Wind** | Luminosity | Snow |
|---|---|---|---|---|---|---|---|
| 1777901438 | 10° C | 92% | 1014.9 hPa | 0 mm | - | - | - |
| 1777899634 | 10° C | 92% | 1014.8 hPa | 0 mm | - | - | - |
| 1777897873 | 10° C | 92% | 1014.9 hPa | 0 mm | - | - | - |
| 1777896032 | 9.44° C | 92% | 1015 hPa | 0 mm | - | - | - |
| 1777894230 | 9.44° C | 92% | 1014.8 hPa | 0 mm | - | - | - |
| 1777892522 | 9.44° C | 92% | 1014.9 hPa | 0 mm | - | - | - |
| 1777890632 | 8.89° C | 92% | 1014.7 hPa | 0 mm | - | - | - |
| 1777888876 | 8.33° C | 92% | 1014.5 hPa | 0 mm | - | - | - |
| 1777887048 | 8.89° C | 92% | 1014.5 hPa | 0 mm | - | - | - |
| 1777883477 | 8.33° C | 91% | 1014.6 hPa | 0 mm | - | - | - |
| 1777881667 | 8.89° C | 90% | 1014.5 hPa | 0 mm | - | - | - |
| 1777879819 | 10° C | 90% | 1014.3 hPa | 0 mm | - | - | - |
| 1777878022 | 10.56° C | 89% | 1014.5 hPa | 0 mm | - | - | - |
| 1777876244 | 11.11° C | 89% | 1014.7 hPa | 0 mm | - | - | - |
| 1777874419 | 11.11° C | 89% | 1015.2 hPa | 0 mm | - | - | - |
| 1777872638 | 11.67° C | 89% | 1015.5 hPa | 0 mm | - | - | - |
| 1777870835 | 11.67° C | 89% | 1015.1 hPa | 0 mm | - | - | - |
| 1777869073 | 11.67° C | 88% | 1014.8 hPa | 0 mm | - | - | - |
| 1777867253 | 11.67° C | 88% | 1014.5 hPa | 0 mm | - | - | - |
| 1777865444 | 11.67° C | 88% | 1014.1 hPa | 0 mm | - | - | - |
| 1777863641 | 11.67° C | 87% | 1013.8 hPa | 0 mm | - | - | - |
| 1777861826 | 11.67° C | 87% | 1013.8 hPa | 0 mm | - | - | - |
| 1777860034 | 11.67° C | 87% | 1013.7 hPa | 0 mm | - | - | - |
| 1777858219 | 12.22° C | 86% | 1013.6 hPa | 0 mm | - | - | - |
| 1777856434 | 12.22° C | 85% | 1013.5 hPa | 0 mm | - | - | - |
* Rain latest hour (hover to see other rain measurements)
** Current wind speed in m/s (hover to see current wind gust speed)